DAL2168 KATL-KEYW

Flight info

Callsign DAL2168
Flight time 1h 24m
Altitude 32000
Route BANNG3 LUCKK BULZI KRAKN1
Aircraft A321/M-SDE3FGHIRWY/LB1

Departure

Time 2026-05-06 19:43
Airport Hartsfield Jackson Atlanta International Airport (KATL)

Arrival

Time 2026-05-06 21:08
Airport Key West International Airport (KEYW)
Time Latitude Longitude Altitude Speed Heading
2026-05-06 18:56 33.63833 -84.43642 1013 ft 0 kts 90°
2026-05-06 19:32 33.63833 -84.43647 1013 ft 2 kts 90°
2026-05-06 19:33 33.63833 -84.43665 1013 ft 2 kts 90°
2026-05-06 19:33 33.63833 -84.43683 1013 ft 2 kts 89°
2026-05-06 19:33 33.63837 -84.43700 1014 ft 2 kts 120°
2026-05-06 19:33 33.63846 -84.43714 1014 ft 2 kts 143°
2026-05-06 19:34 33.63859 -84.43722 1014 ft 2 kts 167°
2026-05-06 19:34 33.63867 -84.43724 1014 ft 1 kts 181°
2026-05-06 19:34 33.63871 -84.43724 1014 ft 0 kts 178°
2026-05-06 19:37 33.63842 -84.43722 1014 ft 10 kts 178°
2026-05-06 19:37 33.63761 -84.43721 1013 ft 12 kts 180°
2026-05-06 19:37 33.63676 -84.43696 1012 ft 13 kts 131°
2026-05-06 19:37 33.63662 -84.43623 1012 ft 14 kts 91°
2026-05-06 19:38 33.63662 -84.43453 1010 ft 16 kts 91°
2026-05-06 19:38 33.63662 -84.43313 1008 ft 17 kts 90°
2026-05-06 19:38 33.63663 -84.43165 1007 ft 18 kts 90°
2026-05-06 19:38 33.63663 -84.43011 1005 ft 19 kts 90°
2026-05-06 19:39 33.63660 -84.42843 1002 ft 20 kts 91°
2026-05-06 19:39 33.63656 -84.42670 999 ft 18 kts 92°
2026-05-06 19:39 33.63654 -84.42520 995 ft 19 kts 91°
2026-05-06 19:39 33.63654 -84.42351 991 ft 21 kts 90°
2026-05-06 19:40 33.63653 -84.42160 984 ft 24 kts 90°
2026-05-06 19:40 33.63653 -84.41959 977 ft 24 kts 90°
2026-05-06 19:40 33.63654 -84.41756 971 ft 24 kts 90°
2026-05-06 19:40 33.63654 -84.41548 966 ft 25 kts 90°
2026-05-06 19:41 33.63655 -84.41325 962 ft 27 kts 91°
2026-05-06 19:41 33.63656 -84.41135 959 ft 16 kts 90°
2026-05-06 19:41 33.63655 -84.40992 957 ft 16 kts 90°
2026-05-06 19:41 33.63617 -84.40908 956 ft 13 kts 174°
2026-05-06 19:42 33.63568 -84.40909 956 ft 4 kts 179°
2026-05-06 19:42 33.63516 -84.40908 956 ft 14 kts 179°
2026-05-06 19:42 33.63469 -84.40939 956 ft 7 kts 269°
2026-05-06 19:42 33.63470 -84.40980 957 ft 11 kts 272°
2026-05-06 19:43 33.63470 -84.41399 964 ft 86 kts 270°
2026-05-06 19:43 33.63471 -84.42368 991 ft 146 kts 269°
2026-05-06 19:43 33.63489 -84.43745 1222 ft 176 kts 269°
2026-05-06 19:43 33.63509 -84.45228 1842 ft 184 kts 265°
2026-05-06 19:44 33.63505 -84.46777 2577 ft 190 kts 266°
2026-05-06 19:44 33.63516 -84.48345 3352 ft 189 kts 268°
2026-05-06 19:44 33.63554 -84.49885 4025 ft 189 kts 269°
2026-05-06 19:44 33.63617 -84.51459 4705 ft 190 kts 270°
2026-05-06 19:45 33.63702 -84.53038 5338 ft 193 kts 270°
2026-05-06 19:45 33.63785 -84.54700 5787 ft 209 kts 270°
2026-05-06 19:45 33.63827 -84.56478 6311 ft 222 kts 269°
2026-05-06 19:45 33.63840 -84.58382 6892 ft 233 kts 268°
2026-05-06 19:46 33.63831 -84.60332 7549 ft 240 kts 267°
2026-05-06 19:46 33.63801 -84.62329 8282 ft 244 kts 267°
2026-05-06 19:46 33.63707 -84.64362 9055 ft 246 kts 261°
2026-05-06 19:46 33.63262 -84.66329 9860 ft 247 kts 246°
2026-05-06 19:47 33.62332 -84.68024 10673 ft 250 kts 230°
2026-05-06 19:47 33.60949 -84.69288 11482 ft 256 kts 212°
2026-05-06 19:47 33.59256 -84.69963 12290 ft 264 kts 196°
2026-05-06 19:47 33.57399 -84.69971 13078 ft 274 kts 179°
2026-05-06 19:48 33.55546 -84.69367 13823 ft 281 kts 169°
2026-05-06 19:48 33.53687 -84.68675 14377 ft 281 kts 178°
2026-05-06 19:48 33.51716 -84.68353 14689 ft 293 kts 183°
2026-05-06 19:48 33.49616 -84.68086 15045 ft 308 kts 182°
2026-05-06 19:49 33.47458 -84.67758 15583 ft 316 kts 181°
2026-05-06 19:49 33.45298 -84.67380 16203 ft 319 kts 180°
2026-05-06 19:49 33.43096 -84.66908 16836 ft 326 kts 176°
2026-05-06 19:49 33.40862 -84.66119 17419 ft 337 kts 169°
2026-05-06 19:50 33.38661 -84.65041 17722 ft 355 kts 165°
2026-05-06 19:50 33.36351 -84.63802 17983 ft 370 kts 164°
2026-05-06 19:50 33.33939 -84.62491 18237 ft 385 kts 163°
2026-05-06 19:50 33.31485 -84.61150 18661 ft 392 kts 163°
2026-05-06 19:51 33.28997 -84.59792 19236 ft 395 kts 163°
2026-05-06 19:51 33.26510 -84.58439 19779 ft 398 kts 163°
2026-05-06 19:51 33.23953 -84.57057 20297 ft 402 kts 163°
2026-05-06 19:51 33.21428 -84.55694 20813 ft 405 kts 164°
2026-05-06 19:52 33.18846 -84.54305 21321 ft 408 kts 163°
2026-05-06 19:52 33.16216 -84.52894 21765 ft 414 kts 164°
2026-05-06 19:52 33.13599 -84.51489 22240 ft 417 kts 163°
2026-05-06 19:52 33.10943 -84.50063 22708 ft 421 kts 164°
2026-05-06 19:53 33.08247 -84.48613 23170 ft 425 kts 163°
2026-05-06 19:53 33.05559 -84.47171 23628 ft 428 kts 164°
2026-05-06 19:53 33.02842 -84.45718 24094 ft 431 kts 163°
2026-05-06 19:53 33.00095 -84.44245 24522 ft 434 kts 164°
2026-05-06 19:54 32.97268 -84.42949 24918 ft 429 kts 172°
2026-05-06 19:54 32.94382 -84.42189 25298 ft 422 kts 181°
2026-05-06 19:54 32.91481 -84.41936 25701 ft 417 kts 188°
2026-05-06 19:54 32.88571 -84.41878 26072 ft 419 kts 189°
2026-05-06 19:55 32.85625 -84.41848 26464 ft 422 kts 189°
2026-05-06 19:55 32.82710 -84.41812 26850 ft 424 kts 189°
2026-05-06 19:55 32.79735 -84.41767 27232 ft 427 kts 189°
2026-05-06 19:55 32.76754 -84.41715 27620 ft 429 kts 189°
2026-05-06 19:56 32.73808 -84.41660 28072 ft 428 kts 189°
2026-05-06 19:56 32.70801 -84.41599 28551 ft 427 kts 189°
2026-05-06 19:56 32.67825 -84.41537 29004 ft 427 kts 189°
2026-05-06 19:56 32.64875 -84.41478 29445 ft 426 kts 189°
2026-05-06 19:57 32.61924 -84.41420 29866 ft 426 kts 189°
2026-05-06 19:57 32.58960 -84.41361 30303 ft 425 kts 190°
2026-05-06 19:57 32.56021 -84.41302 30694 ft 425 kts 190°
2026-05-06 19:57 32.53045 -84.41245 31058 ft 425 kts 190°
2026-05-06 19:58 32.50086 -84.41187 31408 ft 426 kts 190°
2026-05-06 19:58 32.47143 -84.41129 31718 ft 428 kts 190°
2026-05-06 19:58 32.44127 -84.41070 31966 ft 430 kts 190°
2026-05-06 19:58 32.41157 -84.41010 31990 ft 431 kts 190°
2026-05-06 19:59 32.35144 -84.40890 31991 ft 433 kts 190°
2026-05-06 19:59 32.29102 -84.40572 31993 ft 440 kts 185°
2026-05-06 20:00 32.22992 -84.39579 31999 ft 442 kts 182°
2026-05-06 20:00 32.16887 -84.38502 31999 ft 451 kts 182°
2026-05-06 20:01 32.10528 -84.37396 32001 ft 469 kts 181°
2026-05-06 20:01 32.04003 -84.36255 31997 ft 477 kts 181°
2026-05-06 20:02 31.97425 -84.35097 31994 ft 481 kts 181°
2026-05-06 20:02 31.90798 -84.33933 31993 ft 484 kts 181°
2026-05-06 20:03 31.84032 -84.32761 31987 ft 494 kts 181°
2026-05-06 20:03 31.77209 -84.31570 31990 ft 494 kts 181°
2026-05-06 20:04 31.70419 -84.30384 31996 ft 493 kts 181°
2026-05-06 20:04 31.63631 -84.29205 32002 ft 494 kts 181°
2026-05-06 20:05 31.56815 -84.28025 32007 ft 494 kts 181°
2026-05-06 20:05 31.50047 -84.26855 32009 ft 495 kts 181°
2026-05-06 20:06 31.43203 -84.25674 32006 ft 495 kts 181°
2026-05-06 20:06 31.36390 -84.24498 32006 ft 495 kts 181°
2026-05-06 20:07 31.29579 -84.23325 32006 ft 495 kts 180°
2026-05-06 20:07 31.22807 -84.22159 32011 ft 494 kts 180°
2026-05-06 20:08 31.15977 -84.20988 32009 ft 496 kts 180°
2026-05-06 20:08 31.09158 -84.19819 32006 ft 496 kts 180°
2026-05-06 20:09 31.02311 -84.18648 31998 ft 497 kts 180°
2026-05-06 20:09 30.95472 -84.17479 31990 ft 497 kts 180°
2026-05-06 20:10 30.88635 -84.16309 31994 ft 496 kts 180°
2026-05-06 20:10 30.81777 -84.15141 31995 ft 496 kts 180°
2026-05-06 20:11 30.74954 -84.13978 31995 ft 495 kts 180°
2026-05-06 20:11 30.68144 -84.12820 31999 ft 496 kts 180°
2026-05-06 20:12 30.61310 -84.11661 32009 ft 496 kts 180°
2026-05-06 20:12 30.54463 -84.10500 32021 ft 496 kts 180°
2026-05-06 20:13 30.47672 -84.09345 32020 ft 494 kts 180°
2026-05-06 20:13 30.40840 -84.08162 32025 ft 498 kts 178°
2026-05-06 20:14 30.34035 -84.06339 32024 ft 506 kts 171°
2026-05-06 20:14 30.27324 -84.03814 32030 ft 508 kts 168°
2026-05-06 20:15 30.20640 -84.01237 32024 ft 507 kts 168°
2026-05-06 20:15 30.13958 -83.98672 32029 ft 506 kts 168°
2026-05-06 20:16 30.07249 -83.96111 32025 ft 507 kts 168°
2026-05-06 20:16 30.00552 -83.93559 32028 ft 507 kts 168°
2026-05-06 20:17 29.93853 -83.91012 32035 ft 507 kts 168°
2026-05-06 20:17 29.87123 -83.88454 32039 ft 507 kts 168°
2026-05-06 20:18 29.80454 -83.85924 32039 ft 506 kts 168°
2026-05-06 20:18 29.73758 -83.83386 32042 ft 506 kts 168°
2026-05-06 20:19 29.67070 -83.80859 32043 ft 506 kts 168°
2026-05-06 20:19 29.60348 -83.78320 32037 ft 507 kts 168°
2026-05-06 20:20 29.53672 -83.75801 32038 ft 506 kts 168°
2026-05-06 20:20 29.46971 -83.73277 32035 ft 507 kts 168°
2026-05-06 20:21 29.40288 -83.70761 32035 ft 506 kts 168°
2026-05-06 20:21 29.33602 -83.68252 32036 ft 506 kts 167°
2026-05-06 20:22 29.26912 -83.65743 32035 ft 506 kts 167°
2026-05-06 20:22 29.20217 -83.63234 32037 ft 506 kts 167°
2026-05-06 20:23 29.13535 -83.60735 32037 ft 507 kts 167°
2026-05-06 20:23 29.06839 -83.58233 32037 ft 505 kts 167°
2026-05-06 20:24 29.00129 -83.55730 32037 ft 505 kts 167°
2026-05-06 20:24 28.93447 -83.53239 32037 ft 505 kts 167°
2026-05-06 20:25 28.86757 -83.50751 32037 ft 505 kts 167°
2026-05-06 20:25 28.80111 -83.48282 32035 ft 505 kts 167°
2026-05-06 20:26 28.73387 -83.45788 32036 ft 505 kts 167°
2026-05-06 20:26 28.66747 -83.43327 32035 ft 504 kts 167°
2026-05-06 20:27 28.60048 -83.40847 32035 ft 504 kts 167°
2026-05-06 20:27 28.53388 -83.38387 32036 ft 504 kts 167°
2026-05-06 20:28 28.46739 -83.35932 32033 ft 504 kts 167°
2026-05-06 20:28 28.40031 -83.33460 32033 ft 504 kts 167°
2026-05-06 20:29 28.33375 -83.31011 32034 ft 504 kts 167°
2026-05-06 20:29 28.26696 -83.28556 32034 ft 504 kts 167°
2026-05-06 20:30 28.16663 -83.24875 32033 ft 503 kts 167°
2026-05-06 20:31 28.10029 -83.22445 32032 ft 503 kts 167°
2026-05-06 20:31 28.03363 -83.20003 32035 ft 503 kts 167°
2026-05-06 20:32 27.96722 -83.17577 32032 ft 503 kts 167°
2026-05-06 20:32 27.90052 -83.15143 32032 ft 504 kts 167°
2026-05-06 20:33 27.83363 -83.12704 32034 ft 503 kts 167°
2026-05-06 20:33 27.76695 -83.10278 32031 ft 503 kts 167°
2026-05-06 20:34 27.70023 -83.07851 32034 ft 502 kts 167°
2026-05-06 20:34 27.63366 -83.05434 32034 ft 502 kts 167°
2026-05-06 20:35 27.56719 -83.03025 32033 ft 503 kts 167°
2026-05-06 20:35 27.50084 -83.00622 32036 ft 502 kts 167°
2026-05-06 20:36 27.43390 -82.98201 32032 ft 503 kts 167°
2026-05-06 20:36 27.36763 -82.95808 32032 ft 503 kts 167°
2026-05-06 20:37 27.30076 -82.93394 32035 ft 502 kts 167°
2026-05-06 20:37 27.23447 -82.91006 32031 ft 502 kts 167°
2026-05-06 20:38 27.16801 -82.88614 32029 ft 502 kts 167°
2026-05-06 20:38 27.10148 -82.86222 32031 ft 501 kts 167°
2026-05-06 20:39 27.03497 -82.83836 32028 ft 502 kts 167°
2026-05-06 20:39 26.96850 -82.81452 32027 ft 502 kts 167°
2026-05-06 20:40 26.90191 -82.79067 32028 ft 502 kts 167°
2026-05-06 20:40 26.83513 -82.76678 32030 ft 502 kts 167°
2026-05-06 20:41 26.76851 -82.74300 32027 ft 502 kts 166°
2026-05-06 20:41 26.70192 -82.71925 32023 ft 503 kts 166°
2026-05-06 20:42 26.63534 -82.69553 32023 ft 503 kts 166°
2026-05-06 20:42 26.56860 -82.67176 32021 ft 497 kts 166°
2026-05-06 20:42 26.53654 -82.66030 32024 ft 480 kts 166°
2026-05-06 20:43 26.50502 -82.64903 32027 ft 468 kts 167°
2026-05-06 20:43 26.44338 -82.62717 31992 ft 466 kts 167°
2026-05-06 20:43 26.41218 -82.61615 31655 ft 465 kts 167°
2026-05-06 20:44 26.38186 -82.60541 31307 ft 458 kts 166°
2026-05-06 20:44 26.35159 -82.59468 30834 ft 455 kts 166°
2026-05-06 20:44 26.32152 -82.58404 30353 ft 451 kts 166°
2026-05-06 20:44 26.29178 -82.57352 29869 ft 448 kts 166°
2026-05-06 20:45 26.26216 -82.56304 29385 ft 445 kts 166°
2026-05-06 20:45 26.23287 -82.55269 28905 ft 441 kts 166°
2026-05-06 20:45 26.20342 -82.54228 28403 ft 438 kts 166°
2026-05-06 20:45 26.17457 -82.53210 27899 ft 435 kts 166°
2026-05-06 20:46 26.14593 -82.52199 27391 ft 432 kts 165°
2026-05-06 20:46 26.11749 -82.51194 26885 ft 429 kts 165°
2026-05-06 20:46 26.08925 -82.50199 26387 ft 426 kts 165°
2026-05-06 20:46 26.06092 -82.49201 25894 ft 423 kts 165°
2026-05-06 20:47 26.03275 -82.48208 25404 ft 420 kts 165°
2026-05-06 20:47 26.00522 -82.47239 24926 ft 418 kts 165°
2026-05-06 20:47 25.97748 -82.46262 24456 ft 415 kts 165°
2026-05-06 20:47 25.94992 -82.45292 23974 ft 413 kts 165°
2026-05-06 20:48 25.92283 -82.44340 23499 ft 411 kts 164°
2026-05-06 20:48 25.89551 -82.43381 23026 ft 409 kts 164°
2026-05-06 20:48 25.86857 -82.42436 22550 ft 407 kts 164°
2026-05-06 20:48 25.84155 -82.41487 22095 ft 404 kts 163°
2026-05-06 20:49 25.81475 -82.40547 21686 ft 401 kts 163°
2026-05-06 20:49 25.78825 -82.39617 21284 ft 398 kts 163°
2026-05-06 20:49 25.76194 -82.38693 20886 ft 394 kts 163°
2026-05-06 20:49 25.73586 -82.37778 20484 ft 391 kts 163°
2026-05-06 20:50 25.71030 -82.36883 20091 ft 388 kts 163°
2026-05-06 20:50 25.68465 -82.35985 19692 ft 385 kts 162°
2026-05-06 20:50 25.65918 -82.35094 19294 ft 382 kts 162°
2026-05-06 20:50 25.63373 -82.34204 18898 ft 379 kts 162°
2026-05-06 20:51 25.60855 -82.33322 18511 ft 376 kts 162°
2026-05-06 20:51 25.58364 -82.32452 18089 ft 374 kts 162°
2026-05-06 20:51 25.55909 -82.31594 17733 ft 371 kts 162°
2026-05-06 20:51 25.53438 -82.30732 17371 ft 368 kts 162°
2026-05-06 20:52 25.51015 -82.29887 17008 ft 365 kts 162°
2026-05-06 20:52 25.48613 -82.29049 16633 ft 363 kts 161°
2026-05-06 20:52 25.46193 -82.28204 16265 ft 361 kts 161°
2026-05-06 20:52 25.43821 -82.27377 15908 ft 359 kts 161°
2026-05-06 20:53 25.41424 -82.26543 15550 ft 357 kts 161°
2026-05-06 20:53 25.39070 -82.25723 15174 ft 355 kts 161°
2026-05-06 20:53 25.36708 -82.24899 14762 ft 354 kts 160°
2026-05-06 20:53 25.34381 -82.24091 14419 ft 351 kts 160°
2026-05-06 20:54 25.32064 -82.23283 14048 ft 349 kts 160°
2026-05-06 20:54 25.29756 -82.22481 13664 ft 347 kts 160°
2026-05-06 20:54 25.27445 -82.21677 13250 ft 346 kts 160°
2026-05-06 20:54 25.25160 -82.20883 12909 ft 342 kts 159°
2026-05-06 20:55 25.22884 -82.20092 12551 ft 339 kts 159°
2026-05-06 20:55 25.20663 -82.19320 12185 ft 336 kts 159°
2026-05-06 20:55 25.18435 -82.18545 11818 ft 334 kts 160°
2026-05-06 20:55 25.16222 -82.17774 11449 ft 331 kts 160°
2026-05-06 20:56 25.14019 -82.17008 11080 ft 329 kts 160°
2026-05-06 20:56 25.11840 -82.16252 10711 ft 327 kts 160°
2026-05-06 20:56 25.09682 -82.15504 10346 ft 325 kts 160°
2026-05-06 20:56 25.07523 -82.14754 10105 ft 322 kts 160°
2026-05-06 20:57 25.05397 -82.14017 10030 ft 322 kts 161°
2026-05-06 20:57 25.03254 -82.13276 9981 ft 322 kts 161°
2026-05-06 20:57 25.01106 -82.12535 9920 ft 320 kts 160°
2026-05-06 20:57 24.98999 -82.11808 9628 ft 317 kts 160°
2026-05-06 20:58 24.96899 -82.11080 9207 ft 316 kts 161°
2026-05-06 20:58 24.94804 -82.10356 8860 ft 313 kts 161°
2026-05-06 20:58 24.92742 -82.09644 8550 ft 308 kts 161°
2026-05-06 20:58 24.90683 -82.08933 8244 ft 303 kts 161°
2026-05-06 20:59 24.88685 -82.08242 7946 ft 299 kts 161°
2026-05-06 20:59 24.86720 -82.07562 7652 ft 294 kts 161°
2026-05-06 20:59 24.84784 -82.06894 7365 ft 290 kts 161°
2026-05-06 20:59 24.82865 -82.06232 7077 ft 286 kts 161°
2026-05-06 21:00 24.80986 -82.05583 6766 ft 283 kts 161°
2026-05-06 21:00 24.79093 -82.04930 6440 ft 280 kts 161°
2026-05-06 21:00 24.77253 -82.04296 6122 ft 277 kts 161°
2026-05-06 21:00 24.75413 -82.03661 5794 ft 275 kts 161°
2026-05-06 21:01 24.73578 -82.03028 5423 ft 275 kts 162°
2026-05-06 21:01 24.71767 -82.02403 5118 ft 272 kts 162°
2026-05-06 21:01 24.69975 -82.01788 4828 ft 269 kts 162°
2026-05-06 21:01 24.68183 -82.01172 4560 ft 265 kts 162°
2026-05-06 21:02 24.66434 -82.00570 4305 ft 261 kts 162°
2026-05-06 21:02 24.64727 -81.99983 4058 ft 257 kts 162°
2026-05-06 21:02 24.63020 -81.99394 3752 ft 251 kts 162°
2026-05-06 21:02 24.61388 -81.98832 3455 ft 239 kts 162°
2026-05-06 21:03 24.59859 -81.98307 3329 ft 224 kts 162°
2026-05-06 21:03 24.58373 -81.97796 3253 ft 222 kts 162°
2026-05-06 21:03 24.56925 -81.97298 3164 ft 212 kts 161°
2026-05-06 21:03 24.55681 -81.96513 3057 ft 207 kts 127°
2026-05-06 21:04 24.55236 -81.95065 2961 ft 204 kts 88°
2026-05-06 21:04 24.55344 -81.93501 2915 ft 207 kts 86°
2026-05-06 21:04 24.55414 -81.91935 2787 ft 204 kts 88°
2026-05-06 21:04 24.55451 -81.90380 2513 ft 199 kts 89°
2026-05-06 21:05 24.55473 -81.88899 2207 ft 192 kts 90°
2026-05-06 21:05 24.55490 -81.87476 1912 ft 183 kts 89°
2026-05-06 21:05 24.55505 -81.86106 1651 ft 173 kts 90°
2026-05-06 21:05 24.55520 -81.84841 1419 ft 162 kts 90°
2026-05-06 21:06 24.55532 -81.83616 1222 ft 161 kts 90°
2026-05-06 21:06 24.55546 -81.82416 998 ft 152 kts 90°
2026-05-06 21:06 24.55558 -81.81297 818 ft 145 kts 90°
2026-05-06 21:06 24.55569 -81.80207 643 ft 139 kts 90°
2026-05-06 21:07 24.55580 -81.79146 515 ft 138 kts 90°
2026-05-06 21:07 24.55597 -81.78105 281 ft 136 kts 90°
2026-05-06 21:07 24.55602 -81.77082 73 ft 135 kts 90°
2026-05-06 21:07 24.55611 -81.76105 11 ft 100 kts 90°
2026-05-06 21:08 24.55617 -81.75542 11 ft 53 kts 89°
2026-05-06 21:08 24.55619 -81.75294 11 ft 16 kts 89°
2026-05-06 21:08 24.55574 -81.75239 11 ft 11 kts 176°
2026-05-06 21:08 24.55530 -81.75302 11 ft 12 kts 271°
2026-05-06 21:09 24.55532 -81.75402 11 ft 10 kts 271°
2026-05-06 21:09 24.55505 -81.75455 11 ft 9 kts 216°
2026-05-06 21:09 24.55474 -81.75487 11 ft 4 kts 225°
2026-05-06 21:09 24.55469 -81.75492 11 ft 0 kts 226°